TITAN 3C TRANSTAGE DEB, 1653

Orbit data source: Space-Track

TITAN 3C TRANSTAGE DEB, 1653 is space debris in LEO originally from a launch on Fri, 15 Oct 1965 UTC launched from the Air Force Eastern Test Range (AFETR). Debris objects in space refer to the collection of defunct objects orbiting the Earth. Examples of debris include non-operational satellites, rocket bodies, and fragments generated from explosions, collisions, or faulty payload assembly.

Loading next visibility...
Identifier
1653, 1965-082Q
Orbit
LEO
Country
Flag of USUS
Related business
Manufacturer
Unknown
Mission
Spacecraft
Bus & Motor
Unknown
Mass
Unknown
Launch date (UTC)
1965-10-15 (60 years ago)
Launch vehicle
Unknown
Launch site
Air Force Eastern Test Range (AFETR)
Object type
Payload
Rocket body
Debris
Shape & HBR
Unknown
Radar Cross Section
0.610 m², Medium (>0.1 m² and < 1m²)

Expand to show TLE details & history
Last TLE update: 9 hours ago

TLE from 9 hours ago
0 TITAN 3C TRANSTAGE DEB
1 01653U 65082Q   25261.28560768  .00000381  00000-0  63215-4 0  9997
2 01653  32.1198 337.9156 0040768 113.8561 246.6364 14.64065412171626
Epoch: 2025-09-18T06:51Z
TLE epoch observation values (Epoch: 2025-09-18T06:51:16.503Z)
Latitude
-0.00001°
Longitude
-122.35258°
Altitude
690.232 km
Speed
7.507 km/s
True Right ascension
22h 31m 39s
True Declination
0° 00' 00"
Sunlit
Object was in full shadow at epoch
Visualization orbit readout
Latitude
Unknown
Longitude
Unknown
Altitude
Unknown
Speed
Unknown
Apparent Right ascension
Unknown
Apparent Declination
Unknown
Sunlit
N/A
Visualization observer readout
Local Sidereal Time
08:20:25
Azimuth
Unknown
Elevation
Unknown
Doppler factor
Unknown
Orbital elements
Apogee altitude
712.467 km
Perigee altitude
654.888 km
Semi-major axis
7,061.814 km
Eccentricity
0.00408
Inclination
32.1198°
RAAN
337.9156°
Arg. of periapsis
113.8561°
True anomaly
246.20841°
Mean anomaly
246.6364°
Eccentric anomaly
246.42232°
Mean motion
3.65737 °/min
Orbital period
98.43 mins
BSTAR
0.000063215
Loading maneuver chart data...
Computing Atmospheric mass density...

Documentation

Showing up to 5 results
|